{"data":{"norad_id":64755,"intl_designator":"2025-147A","name":"STARLINK-33965","alt_names":[],"object_type":"PAYLOAD","status":"ACTIVE","operator":null,"country":"US","launch_date":"2025-07-08","launch_site_code":"AFETR","launch_vehicle":null,"mission":null,"orbit_class":"UNKNOWN","rcs_meters":null,"size_class":null,"mass_kg":null,"dimensions":null,"purposes":["comms"],"wikipedia_slug":null,"has_3d_model":false,"image_url":null,"decayed_at":null,"tle_current":{"epoch":"2026-05-24T23:31:11.512704Z","epoch_age_seconds":70024,"freshness":"FRESH","line1":"1 64755U 25147A   26144.97999436  .00022655  00000+0  68052-3 0  9992","line2":"2 64755  53.1588 247.5813 0000903  85.0210 275.0896 15.34357929 50489","mean_motion":15.34357929,"eccentricity":9.03e-5,"inclination_deg":53.1588,"raan_deg":247.5813,"arg_perigee_deg":85.021,"mean_anomaly_deg":275.0896,"bstar":0.00068052,"rev_number":5048,"period_min":93.850331319922,"perigee_km":462.21054777692,"apogee_km":463.44602610775,"semimajor_km":6840.9652869423,"source":"CELESTRAK","updated_at":"2026-05-25T13:38:20.551852Z"}}}